Location: Bellerive
(46.9237°N, 7.0223°E)
Time: 16:47:37
(UTC+00:00)

Cosmos 1023 Rocket - Pass Details

Date: 09 April 2020
Orbit: 737 x 772 km, 74.1° (Epoch: 28 May)

Event Time Altitude Azimuth Distance (km) Brightness Sun altitude
Rises 19:21:24 0° 197° (SSW) 3,198 7.6 -11.9°
Reaches altitude 10° 19:23:46 10° 196° (SSW) 2,272 6.8 -12.3°
Maximum altitude 19:28:55 81° 110° (ESE) 764 4.4 -13.0°
Drops below altitude 10° 19:34:03 10° 24° (NNE) 2,266 7.0 -13.8°
Sets 19:36:24 0° 23° (NNE) 3,190 7.8 -14.2°
